Regional Weather Roundup
Issued by NWS Green Bay, WI

Home | Current Version | Previous Version | Graphics & Text | Print | Product List | Glossary Off
Versions: 1 2 3 4 5 6 7 8 9 10 11 12 13 14 15 16 17 18 19 20 21 22 23 24 25 26 27 28 29 30 31 32 33 34 35 36 37 38 39 40 41 42 43 44 45 46 47 48 49 50

000
ASUS43 KGRB 231800
RWRGRB

NORTH-CENTRAL AND NORTHEAST WISCONSIN REGIONAL WEATHER ROUNDUP
NATIONAL WEATHER SERVICE GREEN BAY WI
1200 PM CST THU NOV 23 2017

WIZ005-009-010>012-018-019-231900-
NORTH CENTRAL WISCONSIN

CITY           SKY/WX    TMP DP  RH WIND       PRES   REMARKS
IRONWOOD       NOT AVBL
MANITOWISH WTR NOT AVBL
ARBOR VITAE    NOT AVBL
EAGLE RIVER    SUNNY     34  20  56 W9        29.83F
LAND O LAKES   NOT AVBL
RHINELANDER    SUNNY     36  22  56 W10       29.85F
PHILLIPS       MOSUNNY   35  22  59 SW7       29.86F
ANTIGO         NOT AVBL
TOMAHAWK       NOT AVBL
MERRILL        SUNNY     36  20  52 W7        29.88S
$$

WIZ013-073-231900-
NORTHEAST WISCONSIN

CITY           SKY/WX    TMP DP  RH WIND       PRES   REMARKS
IRON MOUNTAIN  SUNNY     37  19  48 NW10      29.82F
MARINETTE      SUNNY     37  19  48 W6        29.88F
$$

WIZ017-030-035>037-045-231900-
CENTRAL WISCONSIN

CITY           SKY/WX    TMP DP  RH WIND       PRES   REMARKS
MEDFORD        NOT AVBL
WAUSAU         SUNNY     37  19  48 W7        29.87F
MOSINEE        MOSUNNY   37  19  48 W8        29.89F
MARSHFIELD     CLOUDY    37  18  46 NW7       29.88F
WISC RAPIDS    SUNNY     40  20  44 VRB7      29.91F
STEVENS POINT  NOT AVBL
WAUPACA        NOT AVBL
SHAWANO        SUNNY     40  19  42 W6        29.88F
CLINTONVILLE   NOT AVBL
WAUTOMA        SUNNY     40  19  43 NW8       29.91F
$$

WIZ038-039-048-051-231900-
FOX VALLEY

CITY           SKY/WX    TMP DP  RH WIND       PRES   REMARKS
NWS GREEN BAY  SUNNY     39  22  50 W6        29.89F
APPLETON       MOSUNNY   37  16  41 W6        29.88F
OSHKOSH        SUNNY     39  21  48 W6        29.89F
FOND DU LAC    SUNNY     40  20  44 SW8       29.91F
$$

WIZ022-050-052-231900-
EAST CENTRAL WISCONSIN

CITY           SKY/WX    TMP DP  RH WIND       PRES   REMARKS
EPHRAIM        NOT AVBL
WASHINGTON ISL NOT AVBL
STURGEON BAY   SUNNY     37  20  50 W8        29.89F
MANITOWOC      SUNNY     39  20  46 SW9       29.91F
SHEBOYGAN      SUNNY     40  22  48 W6        29.90F
$$

LMZ563-521-522-541>543-231900-
LAKESHORE

STATION/POSITION TIME  TEMP    WIND        PRES    VSBY  WAVE
                       AIR SEA DIR/SP/G                  HT/PER
                 (UTC) (F)     (DEG/KT/KT) (MB)    (MI)  (FT/S)
SHEBOYGAN LKSHOR 1700   37     250/  7/ 10 1014.2F
KEWAUNEE LKSHORE 1730   38     290/  8/ 12 1011.9F
NORTHPORT PIER   1740   36     230/  6/ 10 1011.9F
N MID LAKE BUOY  1650   35 47  250/ 16/ 19 1013.5F         3/ 5
SISTER BAY LKSHO 1719   37     260/ 10/ 12   N/A
MENOMINEE LKSHOR 1730   36     230/  7/ 10 1011.9F
$$



USA.gov is the U.S. government's official web portal to all federal, state and local government web resources and services.